Sarasota, FL

7:40 PM EST on November 20, 2019 (GMT -0500)
Sarasota-bradenton

Weather History for KSRQ - September, 2019

Change the Weather History Date:

Monday, September 30, 2019

  Actual Average Record
Temperature  
Mean Temperature 86 °F 80 °F  
Max Temperature 95 °F 88 °F 94 °F (1958)
Min Temperature 77 °F 72 °F 58 °F (1970)
Degree Days  
Heating Degree Days 0 0  
Month to date heating degree days 0  
Since 1 July heating degree days 0  
Cooling Degree Days 21 15  
Month to date cooling degree days 492  
Year to date cooling degree days 2789  
Growing Degree Days 36 (Base 50)    
Moisture  
Dew Point 71 °F    
Average Humidity 67    
Maximum Humidity 84    
Minimum Humidity 44    
Precipitation  
Precipitation 0.00 in 0.14 in 2.00 in (1920)
Month to date precipitation 7.10  
Year to date precipitation 45.43  
Sea Level Pressure  
Sea Level Pressure 30.00 in    
Wind  
Wind Speed 8 mph ()    
Max Wind Speed 18 mph    
Max Gust Speed 28 mph    
Visibility 10.0 miles    
Events      
T = Trace of Precipitation, MM = Missing Value Source: Averaged Metar Reports

Daily Weather History Graph

Daily Weather History Graph

Search for Another Location

Airport or City:

Astronomy

Sep. 30, 2019 Rise Set
Actual Time 7:22 AM EDT 7:17 PM EDT
Civil Twilight 6:59 AM EDT 7:40 PM EDT
Nautical Twilight 6:31 AM EDT 8:08 PM EDT
Astronomical Twilight 6:04 AM EDT 8:35 PM EDT
Moon 9:17 AM EDT (9/30) 9:03 PM EDT (9/30)
Length of Visible Light 12h 41m
Length of Day
11h 55m
Waxing Crescent, 5% of the Moon is Illuminated
Sep 30
Waxing Crescent
Oct 5
First Quarter
Oct 13
Full
Oct 21
Last Quarter
Oct 27
New

Hourly Weather History & Observations

Time (EDT) Temp. Heat Index Dew Point Humidity Pressure Visibility Wind Dir Wind Speed Gust Speed Precip Events Conditions
12:53 AM 79.0 °F - 71.1 °F 77% 30.06 in 10.0 mi ENE 8.1 mph - N/A   Clear
1:53 AM 78.1 °F - 71.1 °F 79% 30.06 in 10.0 mi ENE 6.9 mph - N/A   Clear
2:53 AM 78.1 °F - 72.0 °F 81% 30.04 in 10.0 mi ENE 8.1 mph - N/A   Clear
3:53 AM 77.0 °F - 72.0 °F 84% 30.02 in 10.0 mi ENE 6.9 mph - N/A   Clear
4:53 AM 77.0 °F - 72.0 °F 84% 30.01 in 10.0 mi ENE 6.9 mph - N/A   Clear
5:53 AM 77.0 °F - 72.0 °F 84% 30.02 in 10.0 mi ENE 8.1 mph - N/A   Clear
6:53 AM 77.0 °F - 72.0 °F 84% 30.02 in 10.0 mi ENE 6.9 mph - N/A   Clear
7:53 AM 77.0 °F - 72.0 °F 84% 30.04 in 10.0 mi ENE 6.9 mph - N/A   Clear
8:53 AM 81.0 °F 85.2 °F 72.0 °F 74% 30.04 in 10.0 mi ENE 11.5 mph - N/A   Clear
9:53 AM 84.0 °F 90.2 °F 73.0 °F 69% 30.04 in 10.0 mi ENE 11.5 mph 19.6 mph N/A   Clear
10:53 AM 87.1 °F 94.5 °F 73.0 °F 63% 30.05 in 10.0 mi ENE 12.7 mph 19.6 mph N/A   Scattered Clouds
11:53 AM 90.0 °F 96.4 °F 71.1 °F 54% 30.03 in 10.0 mi East 11.5 mph 20.7 mph N/A   Partly Cloudy
12:53 PM 89.1 °F 95.0 °F 71.1 °F 55% 30.02 in 10.0 mi East 15.0 mph - N/A   Mostly Cloudy
1:53 PM 93.0 °F 100.1 °F 71.1 °F 49% 29.99 in 10.0 mi ENE 15.0 mph 21.9 mph N/A   Partly Cloudy
2:53 PM 93.9 °F 100.8 °F 71.1 °F 47% 29.96 in 10.0 mi ENE 11.5 mph - N/A   Partly Cloudy
3:53 PM 95.0 °F 101.3 °F 70.0 °F 44% 29.94 in 10.0 mi East 12.7 mph 23.0 mph N/A   Scattered Clouds
4:53 PM 91.9 °F 97.4 °F 70.0 °F 48% 29.94 in 10.0 mi NE 18.4 mph 27.6 mph 0.00 in   Mostly Cloudy
5:53 PM 86.0 °F 93.0 °F 73.0 °F 65% 29.94 in 10.0 mi East 11.5 mph - 0.00 in   Scattered Clouds
6:53 PM 86.0 °F 93.0 °F 73.0 °F 65% 29.94 in 10.0 mi East 6.9 mph - N/A   Clear
7:53 PM 86.0 °F 89.4 °F 68.0 °F 55% 29.95 in 10.0 mi ENE 9.2 mph - N/A   Clear
8:53 PM 84.9 °F 88.8 °F 69.1 °F 59% 29.97 in 10.0 mi ENE 8.1 mph - N/A   Clear
9:53 PM 82.9 °F 86.5 °F 69.1 °F 63% 29.99 in 10.0 mi ENE 11.5 mph - N/A   Clear
10:53 PM 82.0 °F 86.3 °F 71.1 °F 69% 29.98 in 10.0 mi ENE 8.1 mph - N/A   Clear
11:53 PM 80.1 °F 83.6 °F 71.1 °F 74% 29.98 in 10.0 mi NE 6.9 mph - N/A   Clear